Tracking 33679 objects as of 4-Apr-2026
HD Live streaming from Space Station
objects crossing your sky now
Track ARTEMIS 2 (INTEGRITY)

RCM-3

Track RCM-3 now!
10-day predictions


NORAD ID: 44323
Int'l Code: 2019-033B
Perigee: 596.0 km
Apogee: 598.0 km
Inclination: 97.8 °
Period: 96.5 minutes
Semi major axis: 6968 km
RCS: Unknown
Launch date: June 12, 2019
Source: Canada (CA)
Launch site: AIR FORCE WESTERN TEST RANGE (AFWTR)
Your satellite tracking list
Your tracking list is empty




NASA's NSSDC Master Catalog

Two Line Element Set (TLE):
1 44323U 19033B   26092.00073338 -.00000052  00000-0  32845-6 0  9991
2 44323  97.7607 100.6170 0001449  90.4742 269.6643 14.92587412370732
Source of the keplerian elements: AFSPC